Waarnemingen

Advertentie
Mijn weer
Montpellier, Frankrijk (7643): temperatuur & dauwpunt: 14.07.2018 04:00:00 - 20.07.2018 04:00:00 (CEST)Montpellier, Frankrijk (7643): temperatuur 5cm: 14.07.2018 04:00:00 - 20.07.2018 04:00:00 (CEST)Montpellier, Frankrijk (7643): temperatuur -20cm & temperatuur -100cm: 14.07.2018 04:00:00 - 20.07.2018 04:00:00 (CEST)Montpellier, Frankrijk (7643): windsnelheid & windstoten: 14.07.2018 04:00:00 - 20.07.2018 04:00:00 (CEST)Montpellier, Frankrijk (7643): windrichting: 14.07.2018 04:00:00 - 20.07.2018 04:00:00 (CEST)Montpellier, Frankrijk (7643): luchtdruk: 14.07.2018 04:00:00 - 20.07.2018 04:00:00 (CEST)Montpellier, Frankrijk (7643): zicht: 14.07.2018 04:00:00 - 20.07.2018 04:00:00 (CEST)Montpellier, Frankrijk (7643): Zonneschijnduur: 14.07.2018 04:00:00 - 20.07.2018 04:00:00 (CEST)Montpellier, Frankrijk (7643): neerslag: 14.07.2018 04:00:00 - 20.07.2018 04:00:00 (CEST)
Datum & Tijd tt [°C] td [°C] tt 5cm [°C] tt -20cm [°C] tt -100cm [°C] ff [km/u] ff [kn] fx [km/u] fx [kn] dd ppp [hPa] vv [km] sd [min] rr [mm]
20.07.2018 04:00:00 20,0 15,4 17,1 27,0 23,8 9 5 11 6 NO 1013,3 34 0 0,0
20.07.2018 03:00:00 21,1 14,5 18,0 27,3 23,8 5 3 10 5 NNO 1013,3 34 0 0,0
20.07.2018 02:00:00 21,8 14,7 18,3 27,5 23,8 6 4 16 9 N 1013,5 25 0 0,0
20.07.2018 01:00:00 24,3 13,5 19,3 27,8 23,7 2 1 12 6 WZW 1013,6 60 0 0,0
20.07.2018 00:00:00 24,9 15,0 19,3 28,1 23,8 4 2 11 6 W 1013,5 49 0 0,0
19.07.2018 23:00:00 25,5 14,6 21,0 28,4 23,8 8 4 16 8 ZW 1013,3 56 0 0,0
19.07.2018 22:00:00 27,0 14,7 21,7 28,7 23,8 10 6 27 15 W 1012,9 60 0 0,0
19.07.2018 21:00:00 26,6 17,1 25,1 28,9 23,7 18 10 31 17 ZW 1012,5 53 56 0,0
19.07.2018 20:00:00 28,3 16,6 28,1 29,0 23,8 22 12 39 21 ZW 1012,3 43 60 0,0
19.07.2018 19:00:00 29,4 16,2 30,8 29,0 23,7 28 15 44 24 ZW 1012,2 26 60 0,0
19.07.2018 18:00:00 29,8 14,4 32,9 29,0 23,8 27 15 39 21 ZW 1012,5 28 60 0,0
19.07.2018 17:00:00 30,9 14,9 35,8 28,7 23,8 25 13 34 19 ZW 1012,7 31 60 0,0
19.07.2018 16:00:00 32,5 15,9 38,9 28,2 23,7 22 12 31 17 ZW 1013,0 36 60 0,0
19.07.2018 15:00:00 32,5 15,5 40,1 27,7 23,7 21 11 29 16 ZZW 1013,2 42 60 0,0
19.07.2018 14:00:00 33,0 14,6 42,0 27,1 23,7 16 9 22 12 ZZW 1013,6 49 60 0,0
19.07.2018 13:00:00 31,5 15,0 42,0 26,6 23,7 10 5 18 10 Z 1014,1 56 60 0,0
19.07.2018 12:00:00 30,5 16,1 35,8 26,1 23,7 7 4 16 9 Z 1014,4 60 60 0,0
19.07.2018 11:00:00 31,1 12,9 34,7 25,9 23,7 10 5 23 12 O 1014,4 60 60 0,0
19.07.2018 10:00:00 28,7 15,2 34,0 25,9 23,7 9 5 18 10 NW 1014,4 20 60 0,0
19.07.2018 09:00:00 25,8 16,4 27,8 25,9 23,7 13 7 16 9 NW 1014,3 60 60 0,0
19.07.2018 08:00:00 22,7 16,7 19,2 26,1 23,7 9 5 15 8 NW 1014,2 46 60 0,0
19.07.2018 07:00:00 20,9 16,7 17,5 26,3 23,7 11 6 15 8 NW 1014,2 40 16 0,0
19.07.2018 06:00:00 20,7 16,5 17,1 26,6 23,7 9 5 12 6 NW 1014,0 33 0 0,0
19.07.2018 05:00:00 20,5 17,1 16,9 26,8 23,7 6 3 9 5 WNW 1014,0 30 0 0,0
19.07.2018 04:00:00 20,7 17,3 17,3 27,1 23,8 7 4 12 7 WNW 1013,9 31 0 0,0
19.07.2018 03:00:00 19,8 16,8 17,8 27,4 23,7 5 3 14 8 NNO 1014,1 31 0 0,0
19.07.2018 02:00:00 21,0 17,4 18,9 27,7 23,7 13 7 30 16 ZZW 1013,6 47 0 0,0
19.07.2018 01:00:00 23,5 16,8 19,7 28,0 23,7 10 6 41 22 NW 1013,5 60 0 0,0
19.07.2018 00:00:00 21,5 17,7 19,4 28,4 23,7 28 15 39 21 N 1013,4 38 0 0,6
18.07.2018 23:00:00 21,6 18,4 20,0 28,7 23,7 29 16 47 26 W 1016,0 9 0 1,2
18.07.2018 22:00:00 24,2 16,7 20,4 29,0 23,8 27 15 39 21 W 1015,6 24 0 0,2
18.07.2018 21:00:00 26,6 14,7 24,9 29,2 23,7 18 10 24 13 W 1014,7 40 0 0,0
18.07.2018 20:00:00 26,2 16,7 25,4 29,4 23,7 19 11 27 14 WZW 1013,9 54 0 0,0
18.07.2018 19:00:00 26,3 15,4 26,9 29,4 23,8 16 8 25 14 ZZW 1013,0 41 34 0,0
18.07.2018 18:00:00 28,1 16,4 33,4 29,2 23,7 18 10 29 16 ZZW 1013,0 26 60 0,0
18.07.2018 17:00:00 29,3 17,2 34,5 28,8 23,7 23 13 32 17 ZZW 1013,4 27 60 0,0
18.07.2018 16:00:00 29,4 16,2 36,8 28,3 23,7 22 12 35 19 ZZW 1014,0 20 60 0,0
18.07.2018 15:00:00 29,9 15,6 38,7 27,7 23,7 22 12 29 16 ZZW 1014,1 41 60 0,0
18.07.2018 14:00:00 29,5 15,6 39,8 27,0 23,7 16 9 27 14 ZZW 1014,4 50 60 0,0
18.07.2018 13:00:00 30,9 15,3 37,0 26,4 23,7 13 7 19 11 OZO 1014,8 59 60 0,0
18.07.2018 12:00:00 30,6 13,8 34,7 26,1 23,7 9 5 21 11 NNO 1015,5 59 60 0,0
18.07.2018 11:00:00 28,8 13,9 32,5 25,9 23,8 14 8 26 14 NO 1015,8 50 60 0,0
18.07.2018 10:00:00 28,1 13,6 30,3 25,8 23,8 21 11 36 20 NNO 1015,8 44 60 0,0
18.07.2018 09:00:00 26,7 13,4 29,9 25,9 23,8 16 9 26 14 NNO 1015,8 42 60 0,0
18.07.2018 08:00:00 24,3 14,4 18,9 26,0 23,7 8 4 13 7 NW 1015,7 39 60 0,0
18.07.2018 07:00:00 20,4 14,7 16,0 26,3 23,8 8 5 13 7 NW 1015,5 40 17 0,0
18.07.2018 06:00:00 20,6 14,7 16,2 26,5 23,8 5 3 10 6 NNW 1015,2 45 0 0,0
18.07.2018 05:00:00 22,1 14,5 17,4 26,7 23,8 6 4 10 5 W 1015,3 51 0 0,0
18.07.2018 04:00:00 22,8 14,6 16,6 27,0 23,8 9 5 9 5 WNW 1015,3 45 0 0,0
18.07.2018 03:00:00 22,3 14,7 17,0 27,3 23,8 3 2 8 5 ZW 1015,7 47 0 0,0
18.07.2018 02:00:00 23,2 13,9 18,7 27,6 23,8 4 2 8 4 WNW 1015,7 51 0 0,0
18.07.2018 01:00:00 24,9 14,4 19,0 27,9 23,8 5 3 11 6 W 1015,8 53 0 0,0
18.07.2018 00:00:00 25,3 13,8 20,6 28,2 23,8 10 5 18 10 NNW 1015,5 60 0 0,0
17.07.2018 23:00:00 27,4 13,0 20,8 28,5 23,8 8 4 14 8 WNW 1015,2 60 0 0,0
17.07.2018 22:00:00 28,7 12,2 26,0 28,8 23,8 13 7 35 19 NNW 1014,6 60 0 0,0
17.07.2018 21:00:00 30,7 12,6 28,7 28,9 23,8 22 12 41 22 WNW 1013,8 52 57 0,0
17.07.2018 20:00:00 32,8 13,9 31,9 29,0 23,8 28 15 39 21 WNW 1013,4 60 60 0,0
17.07.2018 19:00:00 33,9 14,4 35,3 28,8 23,8 11 6 23 13 NW 1013,1 60 58 0,0
17.07.2018 18:00:00 33,4 12,9 33,5 28,5 23,8 6 3 14 8 Z 1013,6 52 47 0,0
17.07.2018 17:00:00 33,1 12,1 35,4 28,1 23,8 6 3 27 14 ZZO 1014,0 43 39 0,0
17.07.2018 16:00:00 33,4 13,5 38,5 27,5 23,8 11 6 33 18 NNW 1014,3 19 58 0,0
17.07.2018 15:00:00 32,9 13,0 40,8 26,9 23,8 17 9 35 19 WNW 1014,7 34 60 0,0
17.07.2018 14:00:00 32,9 13,5 39,6 26,3 23,8 11 6 32 17 WNW 1015,1 33 60 0,0
17.07.2018 13:00:00 31,7 13,0 37,2 25,7 23,8 16 9 36 19 NW 1015,6 32 60 0,0
17.07.2018 12:00:00 30,6 12,5 36,4 25,3 23,8 18 10 41 22 NNW 1015,8 20 60 0,0
17.07.2018 11:00:00 29,6 15,0 33,1 25,1 23,8 16 9 35 19 NW 1016,0 27 60 0,0
17.07.2018 10:00:00 27,3 14,3 31,2 24,9 23,8 23 12 38 21 NW 1016,0 26 60 0,0
17.07.2018 09:00:00 26,0 14,8 27,4 25,0 23,8 21 11 35 19 NW 1016,1 29 60 0,0
17.07.2018 08:00:00 24,3 14,7 22,4 25,1 23,8 21 12 31 17 NW 1016,0 32 60 0,0
17.07.2018 07:00:00 23,4 14,4 20,9 25,2 23,8 20 11 33 18 WNW 1015,7 31 18 0,0
17.07.2018 06:00:00 23,2 13,9 21,5 25,4 23,8 26 14 42 23 WNW 1015,2 53 0 0,0
17.07.2018 05:00:00 23,8 14,2 21,8 25,5 23,8 28 15 38 20 WNW 1015,1 60 0 0,0
17.07.2018 04:00:00 23,9 14,6 22,1 25,7 23,8 27 14 45 24 WNW 1014,9 56 0 0,0
17.07.2018 03:00:00 24,3 14,7 22,6 25,8 23,8 27 15 51 27 NW 1015,0 53 0 0,0
17.07.2018 02:00:00 24,3 14,7 22,6 26,0 23,8 32 18 48 26 WNW 1015,0 53 0 0,0
17.07.2018 01:00:00 24,5 15,4 22,8 26,1 23,8 26 14 41 22 NW 1014,9 54 0 0,0
17.07.2018 00:00:00 24,5 14,9 22,8 26,3 23,8 26 14 48 26 NW 1014,3 59 0 0,0
16.07.2018 23:00:00 25,0 15,0 23,3 26,5 23,8 29 16 53 29 NW 1013,7 59 0 0,0
16.07.2018 22:00:00 25,4 14,8 23,9 26,7 23,8 33 18 49 27 NW 1012,5 60 0 0,0
16.07.2018 21:00:00 26,3 14,4 25,0 26,8 23,8 29 16 46 25 NW 1012,0 57 25 0,0
16.07.2018 20:00:00 26,4 14,2 25,9 26,9 23,8 31 17 51 28 WNW 1011,8 45 2 0,0
16.07.2018 19:00:00 26,6 14,4 26,4 27,0 23,8 30 16 48 26 WNW 1010,7 54 2 0,0
16.07.2018 18:00:00 26,6 14,7 27,6 27,0 23,8 31 17 49 26 NW 1010,6 45 6 0,0
16.07.2018 17:00:00 27,9 14,5 29,8 26,9 23,8 26 14 42 23 NW 1009,8 50 41 0,0
16.07.2018 16:00:00 27,1 14,8 26,0 26,9 23,8 29 15 43 23 NNW 1009,8 60 0 0,0
16.07.2018 15:00:00 25,6 15,3 25,8 26,9 23,8 19 10 33 18 NNW 1010,2 53 0 0,0
16.07.2018 14:00:00 24,5 16,2 24,0 26,9 23,8 15 8 34 18 NW 1011,2 55 0 0,0
16.07.2018 13:00:00 24,0 17,0 25,4 26,9 23,8 23 12 35 19 NNW 1011,3 34 7 0,0
16.07.2018 12:00:00 23,7 20,2 20,8 26,9 23,7 14 7 19 10 NNW 1010,5 20 10 0,0
16.07.2018 11:00:00 21,8 19,0 20,2 27,0 23,7 6 4 21 12 NNW 1010,9 19 0 2,0
16.07.2018 10:00:00 22,4 18,2 21,5 27,1 23,7 4 2 25 13 ZO 1011,1 15 0 0,0
16.07.2018 09:00:00 22,1 18,1 20,5 27,2 23,7 13 7 16 9 N 1010,8 19 0 0,0
16.07.2018 08:00:00 21,6 17,4 20,1 27,4 23,7 7 4 10 5 N 1010,7 36 0 0,0
16.07.2018 07:00:00 20,9 18,3 19,1 27,6 23,7 6 3 10 5 N 1011,1 20 0 0,0
16.07.2018 06:00:00 21,0 18,2 18,9 27,9 23,7 8 4 13 7 N 1011,8 19 0 0,0
16.07.2018 05:00:00 21,3 19,2 20,0 28,1 23,7 7 4 12 6 N 1011,6 12 0 0,0
16.07.2018 04:00:00 21,8 19,9 20,9 28,3 23,7 11 6 21 11 N 1012,1 11 0 0,0
16.07.2018 03:00:00 23,0 20,7 21,2 28,6 23,7 14 7 23 12 NNO 1013,4 12 0 0,0
16.07.2018 02:00:00 22,9 21,2 20,8 28,9 23,7 7 4 14 8 N 1014,4 10 0 0,0
16.07.2018 01:00:00 22,3 20,9 19,6 29,1 23,7 8 4 13 7 NNO 1013,3 10 0 0,0
16.07.2018 00:00:00 24,2 21,7 20,9 29,5 23,7 5 3 12 7 ZW 1013,3 17 0 0,0
15.07.2018 23:00:00 24,0 21,3 21,1 29,8 23,7 7 4 10 5 ZZW 1013,0 17 0 0,0
15.07.2018 22:00:00 23,8 20,5 21,3 30,1 23,7 8 4 16 8 Z 1012,8 20 0 0,0
15.07.2018 21:00:00 24,9 20,4 24,1 30,3 23,7 10 5 19 11 ZZW 1012,4 22 60 0,0
15.07.2018 20:00:00 26,7 20,1 27,3 30,4 23,7 10 6 22 12 ZZW 1012,1 32 60 0,0
15.07.2018 19:00:00 28,1 16,4 31,1 30,4 23,7 12 6 20 11 ZZW 1012,2 25 60 0,0
15.07.2018 18:00:00 29,2 18,0 35,1 30,1 23,7 14 8 21 11 ZZW 1012,5 19 60 0,0
15.07.2018 17:00:00 28,9 17,1 36,6 29,7 23,7 13 7 25 13 ZZW 1012,9 25 60 0,0
15.07.2018 16:00:00 29,4 17,9 38,8 29,2 23,7 16 9 24 13 ZZW 1013,4 27 60 0,0
15.07.2018 15:00:00 29,9 17,4 41,0 28,5 23,6 13 7 19 11 ZZW 1013,9 30 60 0,0
15.07.2018 14:00:00 29,5 17,7 39,0 28,0 23,7 14 8 22 12 ZZW 1014,5 18 60 0,0
15.07.2018 13:00:00 28,5 18,6 38,1 27,4 23,7 15 8 23 12 ZZW 1014,9 37 60 0,0
15.07.2018 12:00:00 28,8 17,7 36,2 27,0 23,7 12 6 16 9 Z 1015,1 42 60 0,0
15.07.2018 11:00:00 28,4 15,7 33,0 26,8 23,6 4 2 14 8 ONO 1015,1 39 60 0,0
15.07.2018 10:00:00 26,6 15,9 29,9 26,7 23,6 8 4 15 8 NNO 1015,1 60 60 0,0
15.07.2018 09:00:00 24,9 16,3 25,4 26,8 23,7 10 5 13 7 ONO 1015,5 60 51 0,0
15.07.2018 08:00:00 23,2 16,7 19,9 27,0 23,7 5 3 24 13 NNO 1015,0 42 12 0,0
15.07.2018 07:00:00 21,8 15,4 19,9 27,1 23,6 5 3 21 12 NNO 1014,1 51 0 0,0
15.07.2018 06:00:00 23,1 16,2 20,6 27,3 23,6 17 9 32 17 N 1015,0 35 0 0,0
15.07.2018 05:00:00 22,4 17,7 18,7 27,5 23,7 10 5 14 7 NW 1015,3 17 0 0,0
15.07.2018 04:00:00 20,6 17,8 18,6 27,8 23,7 5 3 11 6 N 1014,3 14 0 0,0
15.07.2018 03:00:00 21,1 17,9 18,2 28,0 23,6 6 4 10 5 N 1014,8 12 0 0,0
15.07.2018 02:00:00 21,0 18,6 18,7 28,3 23,6 8 4 22 12 NNO 1015,3 12 0 0,0
15.07.2018 01:00:00 22,3 17,9 18,2 28,7 23,6 5 3 9 5 W 1015,2 11 0 0,0
15.07.2018 00:00:00 23,1 19,7 17,8 29,0 23,6 6 3 9 5 ZW 1014,8 7 0 0,0
14.07.2018 23:00:00 24,1 19,2 19,2 29,3 23,6 7 4 13 7 ZZW 1014,7 12 0 0,0
14.07.2018 22:00:00 24,8 18,5 20,7 29,6 23,6 9 5 14 8 ZW 1014,4 20 0 0,0
14.07.2018 21:00:00 26,4 18,5 24,2 29,9 23,6 10 6 21 11 ZW 1013,9 29 60 0,0
14.07.2018 20:00:00 27,1 19,2 27,3 30,0 23,6 15 8 25 14 ZW 1014,1 20 60 0,0
14.07.2018 19:00:00 27,6 18,3 29,9 29,9 23,6 17 9 25 14 ZZW 1014,5 26 60 0,0
14.07.2018 18:00:00 28,3 17,8 33,7 29,7 23,6 15 8 23 12 ZZW 1014,6 26 60 0,0
14.07.2018 17:00:00 29,4 19,1 37,0 29,2 23,6 12 6 17 9 ZZW 1014,9 20 60 0,0
14.07.2018 16:00:00 29,8 18,6 36,3 28,8 23,6 13 7 21 12 Z 1015,2 31 54 0,0
14.07.2018 15:00:00 29,2 19,8 35,7 28,3 23,6 15 8 24 13 Z 1015,5 34 47 0,0
14.07.2018 14:00:00 30,5 18,6 40,2 27,7 23,6 12 6 17 9 Z 1015,7 36 52 0,0
14.07.2018 13:00:00 30,7 17,4 37,4 27,2 23,6 8 4 13 7 ZZO 1016,0 39 51 0,0
14.07.2018 12:00:00 31,5 17,4 34,7 26,9 23,6 9 5 18 10 O 1016,3 18 53 0,0
14.07.2018 11:00:00 29,0 16,9 32,8 26,7 23,6 13 7 23 12 NNO 1016,5 34 60 0,0
14.07.2018 10:00:00 27,1 16,4 25,1 26,6 23,6 14 7 22 12 N 1016,6 33 42 0,0
14.07.2018 09:00:00 23,5 17,3 21,8 26,7 23,6 15 8 24 13 NNW 1016,9 30 0 0,0
14.07.2018 08:00:00 22,3 16,8 20,6 26,8 23,6 11 6 16 9 NNW 1016,4 26 0 0,0
14.07.2018 07:00:00 21,9 15,3 19,8 27,0 23,6 5 3 16 9 NNO 1016,3 26 0 0,0
14.07.2018 06:00:00 20,8 14,4 18,8 27,2 23,6 9 5 15 8 ONO 1016,1 22 0 0,0
14.07.2018 05:00:00 21,1 13,8 18,7 27,5 23,6 13 7 16 9 NO 1016,3 25 0 0,0
14.07.2018 04:00:00 21,7 13,3 20,2 27,7 23,6 9 5 16 8 ONO 1016,7 26 0 0,0

tt = temperatuur
td = dauwpunt
tt 5cm = temperatuur 5cm
tt -20cm = temperatuur -20cm
tt -100cm = temperatuur -100cm
ff = windsnelheid
fx = windstoten
dd = windrichting
ppp = luchtdruk
vv = zicht
sd = Zonneschijnduur
rr = neerslag

Weerstations in de omgeving